This is the latest recevied weather packets stored in our database for station/object GJ7DNI-13. If no packets are shown the sender has not sent any weather packets the latest 10 day(s).
| Time | Temp. | Humidity | Pressure | Rain* | Wind** | Luminosity | Snow |
|---|---|---|---|---|---|---|---|
| 1777662005 | 14.44° C | 72% | 1019.3 hPa | 0 mm | - | 12 W/m² | - |
| 1777661705 | 14.44° C | 72% | 1019.3 hPa | 0 mm | - | 14 W/m² | - |
| 1777661405 | 13.89° C | 72% | 1019.3 hPa | 0 mm | - | 16 W/m² | - |
| 1777661105 | 14.44° C | 72% | 1019.2 hPa | 0 mm | - | 19 W/m² | - |
| 1777660805 | 14.44° C | 72% | 1019.2 hPa | 0 mm | - | 26 W/m² | - |
| 1777660505 | 14.44° C | 71% | 1019.2 hPa | 0 mm | - | 35 W/m² | - |
| 1777660205 | 14.44° C | 71% | 1019.2 hPa | 0 mm | - | 53 W/m² | - |
| 1777659905 | 15° C | 71% | 1019.2 hPa | 0 mm | - | 74 W/m² | - |
| 1777659605 | 15° C | 70% | 1019.2 hPa | 0 mm | - | 84 W/m² | - |
| 1777659305 | 15.56° C | 71% | 1019.2 hPa | 0 mm | - | 98 W/m² | - |
| 1777659005 | 15.56° C | 71% | 1019.1 hPa | 0 mm | - | 116 W/m² | - |
| 1777658705 | 15.56° C | 70% | 1019.1 hPa | 0 mm | - | 132 W/m² | - |
| 1777658405 | 15.56° C | 72% | 1019.1 hPa | 0 mm | - | 121 W/m² | - |
| 1777658105 | 15° C | 71% | 1019 hPa | 0 mm | - | 125 W/m² | - |
| 1777657805 | 15.56° C | 71% | 1019 hPa | 0 mm | - | 98 W/m² | - |
| 1777657505 | 15.56° C | 70% | 1019 hPa | 0 mm | - | 81 W/m² | - |
| 1777657205 | 16.11° C | 69% | 1019 hPa | 0 mm | - | 153 W/m² | - |
| 1777656906 | 16.11° C | 67% | 1019 hPa | 0 mm | - | 183 W/m² | - |
| 1777656605 | 16.67° C | 68% | 1019 hPa | 0 mm | - | 232 W/m² | - |
| 1777656305 | 16.67° C | 68% | 1019 hPa | 0 mm | - | 241 W/m² | - |
| 1777656005 | 17.22° C | 65% | 1018.9 hPa | 0 mm | - | 246 W/m² | - |
| 1777655705 | 17.22° C | 67% | 1018.9 hPa | 0 mm | - | 216 W/m² | - |
| 1777655405 | 17.22° C | 66% | 1019 hPa | 0 mm | - | 213 W/m² | - |
| 1777655105 | 17.22° C | 68% | 1019 hPa | 0 mm | - | 267 W/m² | - |
| 1777654805 | 17.22° C | 67% | 1019 hPa | 0 mm | - | 230 W/m² | - |
* Rain latest hour (hover to see other rain measurements)
** Current wind speed in m/s (hover to see current wind gust speed)